Location: Brno
(49.2000°N, 16.6330°E)
Time: 11:57:21
(UTC+02:00)

RESURS DK-1 - Visible Passes

Search period start: 01 July 2016 00:00
Search period end: 11 July 2016 00:00
Orbit: 557 x 564 km, 69.9° (Epoch: 01 July)

Date Brightness Start Highest point End Pass type
(mag) Time Alt. Az. Time Alt. Az. Time Alt. Az.
01 Jul 3.5 01:08:56 27° SE 01:09:53 29° ESE 01:13:31 10° NE visible
01 Jul 3.6 02:44:51 15° WSW 02:47:52 35° NW 02:51:44 10° NNE visible
02 Jul 3.1 01:07:38 33° SE 01:08:38 39° ESE 01:12:30 10° NE visible
02 Jul 3.9 02:43:33 12° WSW 02:46:48 28° NW 02:50:26 10° NNE visible
03 Jul 2.7 01:06:17 39° SSE 01:07:24 51° ESE 01:11:27 10° NE visible
03 Jul 4.3 02:42:24 10° W 02:45:45 23° NW 02:49:07 10° N visible
04 Jul 2.3 01:04:54 41° S 01:06:12 69° ESE 01:10:21 10° NE visible
04 Jul 4.6 02:41:43 10° W 02:44:43 19° NW 02:47:44 10° N visible
04 Jul 4.6 23:27:34 11° ESE 23:27:38 11° E 23:28:42 10° E visible
05 Jul 2.3 01:03:28 38° SSW 01:05:01 90° WNW 01:09:12 10° NNE visible
05 Jul 4.9 02:41:08 10° WNW 02:43:43 16° NW 02:46:18 10° N visible
05 Jul 4.3 23:26:06 14° ESE 23:26:19 15° ESE 23:28:36 10° ENE visible
06 Jul 2.5 01:02:00 31° SW 01:03:51 69° WNW 01:08:01 10° NNE visible
06 Jul 5.0 02:40:41 10° WNW 02:42:44 13° NW 02:44:46 10° N visible
06 Jul 3.9 23:24:34 19° ESE 23:25:00 19° ESE 23:27:57 10° ENE visible
07 Jul 3.0 01:00:27 24° WSW 01:02:43 53° NW 01:06:48 10° NNE visible
07 Jul 5.2 02:40:31 10° NW 02:41:46 11° NW 02:43:01 10° NNW visible
07 Jul 3.6 23:22:58 23° SE 23:23:42 25° ESE 23:27:07 10° NE visible
08 Jul 3.5 00:58:52 18° WSW 01:01:35 41° NW 01:05:33 10° NNE visible
08 Jul 3.2 23:21:18 27° SE 23:22:26 32° ESE 23:26:10 10° NE visible
09 Jul 3.9 00:57:11 12° WSW 01:00:29 32° NW 01:04:17 10° NNE visible
09 Jul 2.8 23:19:32 28° SSE 23:21:11 42° ESE 23:25:08 10° NE visible
10 Jul 4.3 00:55:54 10° WSW 00:59:26 26° NW 01:02:58 10° N visible
10 Jul 2.4 23:17:39 24° S 23:19:58 57° ESE 23:24:03 10° NE visible
